Regional Weather Roundup
Issued by NWS Green Bay, WI

Home | Current Version | Previous Version | Graphics & Text | Print | Product List | Glossary Off
Versions: 1 2 3 4 5 6 7 8 9 10 11 12 13 14 15 16 17 18 19 20 21 22 23 24 25 26 27 28 29 30 31 32 33 34 35 36 37 38 39 40 41 42 43 44 45 46 47 48 49 50

475
ASUS43 KGRB 210200
RWRGRB

NORTH-CENTRAL AND NORTHEAST WISCONSIN REGIONAL WEATHER ROUNDUP
NATIONAL WEATHER SERVICE GREEN BAY WI
800 PM CST MON FEB 20 2017

WIZ005-009-010>012-018-019-210300-
NORTH CENTRAL WISCONSIN

CITY           SKY/WX    TMP DP  RH WIND       PRES   REMARKS
IRONWOOD       LGT RAIN  48  46  93 S16G24    29.67S
MANITOWISH WTR NOT AVBL
ARBOR VITAE    NOT AVBL
EAGLE RIVER    NOT AVBL
LAND O LAKES   LGT RAIN  45  44  97 S12G17    29.75F
RHINELANDER    LGT RAIN  47  47 100 S13G22    29.76S FOG
PHILLIPS       DRIZZLE   48  48 100 S12G17    29.73R
ANTIGO         NOT AVBL
TOMAHAWK       NOT AVBL
MERRILL        NOT AVBL
$$

WIZ013-073-210300-
NORTHEAST WISCONSIN

CITY           SKY/WX    TMP DP  RH WIND       PRES   REMARKS
IRON MOUNTAIN  RAIN      40  36  86 SE10      29.83F FOG
MARINETTE      LGT RAIN  45  39  79 S20G26    29.87F
OCONTO         CLOUDY    43  39  87 S14G22    29.86F
$$

WIZ017-030-035>037-045-210300-
CENTRAL WISCONSIN

CITY           SKY/WX    TMP DP  RH WIND       PRES   REMARKS
MEDFORD        NOT AVBL
WAUSAU         HVY RAIN  47  47 100 S8        29.78R FOG
MOSINEE        RAIN      46  46 100 S10       29.80R
MARSHFIELD     RAIN      52  51  97 S13       29.77S FOG
WISC RAPIDS    RAIN      53  53 100 SW8       29.81R FOG
STEVENS POINT  NOT AVBL
WAUPACA        LGT RAIN  50  48  93 SE8       29.83F
SHAWANO        DRIZZLE   50  46  87 S9G21     29.83F
CLINTONVILLE   LGT RAIN  46  45  93 S12       29.83F
WAUTOMA        LGT RAIN  51  49  92 SE7       29.82F FOG
$$

WIZ038-039-048-051-210300-
FOX VALLEY

CITY           SKY/WX    TMP DP  RH WIND       PRES   REMARKS
NWS GREEN BAY  LGT RAIN  51  45  79 SE22G30   29.85F
APPLETON       DRIZZLE   50  43  76 SE16G24   29.83F
OSHKOSH        CLOUDY    52  45  77 S15       29.84F
FOND DU LAC    CLOUDY    54  44  69 SE20      29.84F
$$

WIZ022-050-052-210300-
EAST CENTRAL WISCONSIN

CITY           SKY/WX    TMP DP  RH WIND       PRES   REMARKS
EPHRAIM        NOT AVBL
WASHINGTON ISL LGT RAIN  44  36  71 S13G28    29.88F
STURGEON BAY   LGT RAIN  47  40  76 SE21G28   29.88F
MANITOWOC      NOT AVBL
SHEBOYGAN      LGT RAIN  50  41  71 S17G25    29.91F
$$

LMZ563-521-522-541>543-210300-
LAKESHORE

STATION/POSITION TIME  TEMP    WIND        PRES    VSBY  WAVE
                       AIR SEA DIR/SP/G                  HT/PER
                 (UTC) (F)     (DEG/KT/KT) (MB)    (MI)  (FT/S)
SHEBOYGAN LKSHOR 0100   44     150/ 20/ 21 1013.5F
KEWAUNEE LKSHORE 0130   40     180/ 11/ 13 1013.3F
NORTHPORT PIER   0130   42     150/ 14/ 20 1012.9F
CHAMBERS ISLAND  0140   47     130/ 13/ 20 1011.2F
MENOMINEE LKSHOR 0130   43     150/ 21/ 28 1010.8F
$$




USA.gov is the U.S. government's official web portal to all federal, state and local government web resources and services.